Погода в Судаке

Россия / Республика Крым     44°51′01″N   34°58′34″E
темп.,
°C
ветер,
м/с
пор.,
м/с
влажн.,
%
обл.,
%
осадки,
мм/ч
давл.,
гПа
погр.,
м
17 апреля, сб
сб1700:00+9зюз1479100 0.0 1019124
03:00+8св5675100 0.0 1020347
06:00+8всв4473100 0.0 1021304
09:00+9в336795 0.0 1023359
12:00+9вюв3368100 0.0 1023406
15:00+9ююв2265100 0.0 1023365
18:00+9в12654 0.0 1022289
21:00+9всв22717 0.0 1021248
18 апреля, вс
вс1800:00+9всв3375100 0.0 1020265
03:00+9св347472 0.0 1018221
06:00+9св457161 0.0 1018244
09:00+10всв447247 0.0 1018222
12:00+10в4579100 0.1 1017250
15:00+10св227993 0.1 101794
18:00+11вюв2382100 0.0 1016117
21:00+10всв1189100 0.0 101714
19 апреля, пн
пн1900:00+10ссз1190100 0.0 101614
03:00+10зюз1192100 0.1 101518
06:00+10вюв0193100 0.0 101510
09:00+11вюв119298 0.1 101453
12:00+11ююв1191100 0.0 1014100
15:00+11всв2296100 1.4 101278
18:00+11св3397100 1.9 101195
21:00+11в3498100 4.8 1009117
20 апреля, вт
вт2000:00+11св5698100 0.6 1003149
03:00+12юв22100100 15.8 100224
06:00+11зюз10169352 3.3 1001371
09:00+11юз1216919 3.3 1001447
12:00+10юз1420848 0.0 1003909
15:00+10юз18258557 0.1 10041377
18:00+10зюз14178492 0.1 10061293
21:00+11з1116735 0.2 10121051
21 апреля, ср
ср2100:00+11юз46760 0.0 1014137
03:00+10ююз22790 0.0 101534
06:00+10юз45855 0.0 1017160
09:00+11юз68855 0.0 1018322
12:00+11юз58835 0.0 1019304
15:00+11юз35814 0.0 1019203
18:00+11ююз348210 0.0 1020142
21:00+11юз22854 0.0 102123